^^
Saratoga-Weather Station Historical Data
Daily Summary for April 20, 2020 Units:  English    Metric   Both
Daily Weekly Monthly Yearly Custom
  High: Low: Average:
Temperature: 80.8 °F 56.3 °F 66.2 °F
Dew Point: 54.3 °F 42.8 °F 49.1 °F
Humidity: 76% 28% 56%
Wind Speed: 4mph 0mph 0.6mph
Wind Gust: 8mph - -
Wind- - SSE
Pressure: 30 in 29.9 in -
Precipitation: 0 in    
Historical Graphs
 
 
Tabular Data for April 20, 2020
Time Temperature Dew Point Pressure Wind Wind Speed Wind Gust Humidity Rainfall Rate (Hourly) solar
00:02 63.1 °F 54.3 °F 30 in Calm     73% 0 in 0 W/m2
00:07 63 °F 54.1 °F 30 in Calm     73% 0 in 0 W/m2
00:12 63 °F 54.1 °F 30 in Calm   2 mph 73% 0 in 0 W/m2
00:18 62.8 °F 54 °F 30 in Calm     73% 0 in 0 W/m2
00:23 62.6 °F 53.8 °F 30 in Calm   2 mph 73% 0 in 0 W/m2
00:28 62.4 °F 53.6 °F 30 in Calm     73% 0 in 0 W/m2
00:33 62.4 °F 53.6 °F 30 in Calm     73% 0 in 0 W/m2
00:38 62.2 °F 53.1 °F 30 in Calm     72% 0 in 0 W/m2
00:43 62.1 °F 52.9 °F 30 in Calm     72% 0 in 0 W/m2
00:48 61.9 °F 52.7 °F 30 in Calm     72% 0 in 0 W/m2
00:53 61.7 °F 52.5 °F 30 in SSW 0.9 mph 1 mph 72% 0 in 0 W/m2
00:58 61.9 °F 52.7 °F 30 in Calm   1 mph 72% 0 in 0 W/m2
01:03 61.9 °F 52.3 °F 30 in Calm   2 mph 71% 0 in 0 W/m2
01:08 62.1 °F 51.8 °F 30 in SSW 0.9 mph 1 mph 69% 0 in 0 W/m2
01:13 62.2 °F 52 °F 30 in Calm   2 mph 69% 0 in 0 W/m2
01:18 62.2 °F 51.6 °F 30 in Calm   2 mph 68% 0 in 0 W/m2
01:23 62.2 °F 51.6 °F 30 in Calm     68% 0 in 0 W/m2
01:28 62.1 °F 51.4 °F 30 in SSW 0.9 mph 2 mph 68% 0 in 0 W/m2
01:33 61.9 °F 51.6 °F 30 in SSW 0.9 mph 1 mph 69% 0 in 0 W/m2
01:38 61.5 °F 51.3 °F 30 in SSW 0.9 mph 1 mph 69% 0 in 0 W/m2
01:43 61.3 °F 51.1 °F 30 in Calm   1 mph 69% 0 in 0 W/m2
01:48 61.3 °F 51.1 °F 30 in Calm     69% 0 in 0 W/m2
01:53 61.2 °F 50.9 °F 30 in Calm     69% 0 in 0 W/m2
01:58 61 °F 50.7 °F 30 in Calm     69% 0 in 0 W/m2
02:03 60.6 °F 50 °F 30 in Calm   1 mph 68% 0 in 0 W/m2
02:08 60.6 °F 50 °F 30 in SSW 0.9 mph 1 mph 68% 0 in 0 W/m2
02:13 60.4 °F 49.8 °F 30 in Calm     68% 0 in 0 W/m2
02:18 60.4 °F 49.8 °F 30 in Calm   1 mph 68% 0 in 0 W/m2
02:23 60.3 °F 50 °F 30 in Calm   1 mph 69% 0 in 0 W/m2
02:28 60.1 °F 49.5 °F 30 in Calm     68% 0 in 0 W/m2
02:33 59.9 °F 49.6 °F 30 in Calm     69% 0 in 0 W/m2
02:38 59.7 °F 49.5 °F 30 in Calm     69% 0 in 0 W/m2
02:43 59.5 °F 49.8 °F 30 in Calm     70% 0 in 0 W/m2
02:48 59.4 °F 49.6 °F 30 in Calm     70% 0 in 0 W/m2
02:53 59.2 °F 49.8 °F 30 in Calm     71% 0 in 0 W/m2
02:58 59 °F 49.6 °F 30 in Calm   1 mph 71% 0 in 0 W/m2
03:03 58.8 °F 49.5 °F 30 in Calm     71% 0 in 0 W/m2
03:08 58.6 °F 49.6 °F 30 in Calm     72% 0 in 0 W/m2
03:13 58.5 °F 49.8 °F 30 in Calm     73% 0 in 0 W/m2
03:18 58.3 °F 49.6 °F 30 in Calm     73% 0 in 0 W/m2
03:23 58.3 °F 50 °F 30 in SSW 0.9 mph 2 mph 74% 0 in 0 W/m2
03:28 58.1 °F 49.8 °F 30 in Calm     74% 0 in 0 W/m2
03:34 58.1 °F 49.5 °F 30 in Calm     73% 0 in 0 W/m2
03:39 58.1 °F 49.5 °F 30 in Calm     73% 0 in 0 W/m2
03:44 57.9 °F 49.6 °F 30 in Calm     74% 0 in 0 W/m2
03:54 57.7 °F 49.1 °F 30 in Calm     73% 0 in 0 W/m2
03:59 57.7 °F 49.1 °F 30 in Calm     73% 0 in 0 W/m2
04:04 57.7 °F 49.1 °F 30 in Calm     73% 0 in 0 W/m2
04:09 57.7 °F 49.1 °F 30 in Calm     73% 0 in 0 W/m2
04:14 57.6 °F 48.9 °F 30 in Calm     73% 0 in 0 W/m2
04:19 57.6 °F 48.9 °F 30 in Calm     73% 0 in 0 W/m2
04:24 57.4 °F 49.1 °F 30 in Calm   1 mph 74% 0 in 0 W/m2
04:29 57.4 °F 49.1 °F 30 in Calm     74% 0 in 0 W/m2
04:34 57.2 °F 48.9 °F 30 in Calm   1 mph 74% 0 in 0 W/m2
04:39 57 °F 48.7 °F 30 in Calm     74% 0 in 0 W/m2
04:44 57 °F 48.7 °F 29.9 in Calm     74% 0 in 0 W/m2
04:49 56.8 °F 48.6 °F 29.9 in Calm     74% 0 in 0 W/m2
04:54 56.8 °F 48.9 °F 30 in Calm     75% 0 in 0 W/m2
04:59 56.7 °F 48.7 °F 30 in Calm     75% 0 in 0 W/m2
05:04 56.7 °F 48.7 °F 29.9 in Calm     75% 0 in 0 W/m2
05:09 56.7 °F 48.7 °F 29.9 in Calm     75% 0 in 0 W/m2
05:14 56.7 °F 48.7 °F 29.9 in Calm     75% 0 in 0 W/m2
05:19 56.7 °F 48.7 °F 29.9 in Calm     75% 0 in 0 W/m2
05:24 56.8 °F 48.9 °F 29.9 in SSW 0.9 mph 1 mph 75% 0 in 0 W/m2
05:29 56.8 °F 48.6 °F 29.9 in Calm   1 mph 74% 0 in 0 W/m2
05:34 57 °F 48.7 °F 29.9 in Calm     74% 0 in 0 W/m2
05:39 57.2 °F 48.9 °F 29.9 in Calm     74% 0 in 0 W/m2
05:44 57.4 °F 49.1 °F 29.9 in SSW 0.9 mph 1 mph 74% 0 in 0 W/m2
05:49 57.6 °F 48.6 °F 29.9 in SSW 0.9 mph 2 mph 72% 0 in 0 W/m2
05:54 57.7 °F 48.7 °F 29.9 in Calm   1 mph 72% 0 in 0 W/m2
05:59 57.9 °F 48.9 °F 29.9 in Calm     72% 0 in 0 W/m2
06:05 57.9 °F 48.9 °F 29.9 in Calm     72% 0 in 0 W/m2
06:10 57.9 °F 48.9 °F 29.9 in Calm   1 mph 72% 0 in 0 W/m2
06:15 57.7 °F 49.1 °F 29.9 in Calm   1 mph 73% 0 in 0 W/m2
06:20 57.6 °F 48.9 °F 29.9 in Calm     73% 0 in 0 W/m2
06:25 57.6 °F 48.9 °F 29.9 in Calm   1 mph 73% 0 in 0 W/m2
06:30 57.4 °F 49.1 °F 29.9 in Calm     74% 0 in 0 W/m2
06:35 57.4 °F 49.1 °F 29.9 in Calm     74% 0 in 0 W/m2
06:40 57.4 °F 49.1 °F 29.9 in Calm     74% 0 in 0 W/m2
06:45 57.2 °F 48.9 °F 29.9 in Calm     74% 0 in 0 W/m2
06:50 57 °F 48.7 °F 29.9 in Calm     74% 0 in 0 W/m2
06:55 57 °F 48.7 °F 29.9 in Calm     74% 0 in 0 W/m2
07:00 56.8 °F 48.9 °F 29.9 in Calm     75% 0 in 0 W/m2
07:05 56.8 °F 48.9 °F 29.9 in Calm     75% 0 in 0 W/m2
07:10 56.8 °F 48.9 °F 29.9 in Calm     75% 0 in 0 W/m2
07:15 56.7 °F 48.4 °F 29.9 in Calm     74% 0 in 0 W/m2
07:20 56.5 °F 48.7 °F 29.9 in Calm   1 mph 75% 0 in 0 W/m2
07:25 56.5 °F 48.7 °F 29.9 in SSW 2 mph 2 mph 75% 0 in 0 W/m2
07:30 56.5 °F 48.7 °F 29.9 in Calm     75% 0 in 7 W/m2
07:35 56.5 °F 48.7 °F 29.9 in SSW 0.9 mph 1 mph 75% 0 in 9 W/m2
07:40 56.5 °F 48.7 °F 29.9 in Calm     75% 0 in 11 W/m2
07:45 56.3 °F 48.9 °F 29.9 in Calm   1 mph 76% 0 in 14 W/m2
07:50 56.5 °F 48.7 °F 29.9 in SSW 0.9 mph 1 mph 75% 0 in 16 W/m2
07:55 56.7 °F 48.7 °F 29.9 in Calm     75% 0 in 18 W/m2
08:00 56.8 °F 48.9 °F 29.9 in SSW 0.9 mph 1 mph 75% 0 in 23 W/m2
08:05 57 °F 48.7 °F 29.9 in Calm   1 mph 74% 0 in 26 W/m2
08:10 57.4 °F 49.1 °F 29.9 in Calm     74% 0 in 30 W/m2
08:15 57.6 °F 49.3 °F 29.9 in Calm     74% 0 in 33 W/m2
08:20 57.7 °F 49.1 °F 29.9 in Calm     73% 0 in 35 W/m2
08:25 58.3 °F 49.3 °F 29.9 in Calm     72% 0 in 40 W/m2
08:30 58.5 °F 49.5 °F 29.9 in Calm     72% 0 in 62 W/m2
08:35 58.8 °F 49.8 °F 29.9 in Calm     72% 0 in 65 W/m2
08:40 58.8 °F 49.1 °F 30 in Calm     70% 0 in 51 W/m2
08:45 59.2 °F 49.1 °F 30 in Calm     69% 0 in 53 W/m2
08:50 59.4 °F 48.7 °F 30 in Calm     68% 0 in 56 W/m2
08:55 59.7 °F 48.7 °F 30 in Calm     67% 0 in 58 W/m2
09:00 60.1 °F 49.5 °F 30 in Calm     68% 0 in 76 W/m2
09:05 60.3 °F 48.9 °F 30 in Calm     66% 0 in 72 W/m2
09:10 60.6 °F 49.6 °F 30 in Calm     67% 0 in 132 W/m2
09:15 61 °F 48.7 °F 30 in Calm     64% 0 in 77 W/m2
09:20 61.5 °F 48.7 °F 30 in Calm   2 mph 63% 0 in 74 W/m2
09:25 62.2 °F 49.5 °F 30 in Calm     63% 0 in 72 W/m2
09:34 63.1 °F 49.8 °F 30 in Calm   2 mph 62% 0 in 74 W/m2
09:40 63.3 °F 49.6 °F 30 in Calm   1 mph 61% 0 in 76 W/m2
09:45 63.9 °F 50.2 °F 30 in Calm   2 mph 61% 0 in 79 W/m2
09:50 64 °F 49.8 °F 30 in NE 0.9 mph 1 mph 60% 0 in 84 W/m2
09:55 64.4 °F 50.2 °F 30 in WSW 0.9 mph 2 mph 60% 0 in 90 W/m2
10:00 64.8 °F 50.2 °F 30 in SSE 0.9 mph 1 mph 59% 0 in 91 W/m2
10:05 64.9 °F 50.7 °F 30 in Calm   1 mph 60% 0 in 100 W/m2
10:10 65.1 °F 50.4 °F 30 in Calm   1 mph 59% 0 in 105 W/m2
10:15 65.3 °F 50.5 °F 30 in Calm     59% 0 in 113 W/m2
10:20 65.7 °F 51.4 °F 30 in Calm   1 mph 60% 0 in 116 W/m2
10:25 66 °F 51.3 °F 30 in Calm     59% 0 in 123 W/m2
10:30 66.6 °F 51.3 °F 30 in Calm     58% 0 in 130 W/m2
10:35 66.9 °F 50.7 °F 30 in Calm   1 mph 56% 0 in 132 W/m2
10:40 67.5 °F 50.7 °F 30 in Calm   2 mph 55% 0 in 132 W/m2
10:45 67.8 °F 51.1 °F 30 in SSE 0.9 mph 2 mph 55% 0 in 132 W/m2
10:50 68 °F 51.3 °F 30 in Calm     55% 0 in 137 W/m2
10:55 68.2 °F 51.4 °F 30 in East 0.9 mph 2 mph 55% 0 in 142 W/m2
11:00 68.2 °F 51.4 °F 30 in ENE 0.9 mph 2 mph 55% 0 in 148 W/m2
11:05 68.2 °F 50.9 °F 30 in East 0.9 mph 3 mph 54% 0 in 151 W/m2
11:10 68.2 °F 50.9 °F 30 in ENE 0.9 mph 3 mph 54% 0 in 153 W/m2
11:15 68 °F 50.7 °F 30 in ESE 0.9 mph 2 mph 54% 0 in 158 W/m2
11:20 68 °F 50.7 °F 30 in East 2.9 mph 3 mph 54% 0 in 165 W/m2
11:25 68.2 °F 50.9 °F 30 in Calm   2 mph 54% 0 in 171 W/m2
11:30 68.2 °F 51.4 °F 30 in East 4 mph 4 mph 55% 0 in 172 W/m2
11:35 68.2 °F 50.4 °F 30 in NE 0.9 mph 2 mph 53% 0 in 163 W/m2
11:40 68.2 °F 50.4 °F 30 in ENE 0.9 mph 2 mph 53% 0 in 172 W/m2
11:45 68 °F 50.2 °F 30 in ENE 0.9 mph 2 mph 53% 0 in 241 W/m2
11:50 68 °F 50.2 °F 30 in WNW 0.9 mph 3 mph 53% 0 in 322 W/m2
11:55 68.4 °F 50.5 °F 30 in NW 0.9 mph 1 mph 53% 0 in 585 W/m2
12:00 68.7 °F 50.4 °F 30 in Calm   2 mph 52% 0 in 552 W/m2
12:05 69.3 °F 50.4 °F 30 in East 0.9 mph 2 mph 51% 0 in 404 W/m2
12:10 69.6 °F 50.7 °F 30 in NW 2 mph 2 mph 51% 0 in 192 W/m2
12:15 69.8 °F 50.4 °F 30 in East 0.9 mph 2 mph 50% 0 in 199 W/m2
12:20 70 °F 51.6 °F 30 in East 2.9 mph 3 mph 52% 0 in 287 W/m2
12:25 70 °F 51.1 °F 30 in NW 0.9 mph 2 mph 51% 0 in 374 W/m2
12:30 70.2 °F 51.3 °F 30 in Calm   2 mph 51% 0 in 489 W/m2
12:35 70.7 °F 52.2 °F 30 in NNW 0.9 mph 1 mph 52% 0 in 501 W/m2
12:40 71.2 °F 51.6 °F 30 in ESE 2 mph 3 mph 50% 0 in 601 W/m2
12:45 71.8 °F 51.6 °F 30 in Calm   2 mph 49% 0 in 487 W/m2
12:50 72.1 °F 53.1 °F 30 in Calm   4 mph 51% 0 in 622 W/m2
12:55 72.9 °F 52.5 °F 30 in ENE 0.9 mph 2 mph 49% 0 in 694 W/m2
13:00 73.8 °F 52.3 °F 30 in ENE 2 mph 6 mph 47% 0 in 682 W/m2
13:05 74.5 °F 52.9 °F 30 in WNW 2 mph 3 mph 47% 0 in 673 W/m2
13:10 74.8 °F 52.7 °F 30 in ENE 0.9 mph 7 mph 46% 0 in 719 W/m2
13:15 75 °F 52.2 °F 30 in NW 0.9 mph 3 mph 45% 0 in 621 W/m2
13:20 74.8 °F 52.7 °F 29.9 in Calm   7 mph 46% 0 in 345 W/m2
13:25 74.8 °F 52.7 °F 29.9 in SE 0.9 mph 3 mph 46% 0 in 246 W/m2
13:30 74.7 °F 52.5 °F 29.9 in SE 2 mph 3 mph 46% 0 in 302 W/m2
13:35 74.5 °F 52.9 °F 29.9 in Calm   2 mph 47% 0 in 214 W/m2
13:40 74.1 °F 52 °F 29.9 in Calm   2 mph 46% 0 in 432 W/m2
13:45 74.1 °F 53.2 °F 29.9 in East 2 mph 4 mph 48% 0 in 580 W/m2
13:50 74.5 °F 52.3 °F 29.9 in WSW 0.9 mph 1 mph 46% 0 in 661 W/m2
13:55 74.7 °F 53.1 °F 29.9 in East 2 mph 4 mph 47% 0 in 650 W/m2
14:00 75 °F 52.9 °F 29.9 in ESE 2.9 mph 4 mph 46% 0 in 533 W/m2
14:05 75.4 °F 52 °F 29.9 in North 2 mph 2 mph 44% 0 in 485 W/m2
14:10 75.6 °F 52.2 °F 29.9 in ENE 2 mph 7 mph 44% 0 in 501 W/m2
14:16 75.7 °F 52.3 °F 29.9 in SSE 2 mph 2 mph 44% 0 in 552 W/m2
14:21 75.7 °F 52.3 °F 29.9 in Calm   6 mph 44% 0 in 594 W/m2
14:26 75.9 °F 52.5 °F 29.9 in SE 0.9 mph 4 mph 44% 0 in 503 W/m2
14:31 76.3 °F 52.7 °F 29.9 in Calm   6 mph 44% 0 in 445 W/m2
14:36 76.3 °F 52.7 °F 29.9 in East 2 mph 4 mph 44% 0 in 376 W/m2
14:41 76.3 °F 52.7 °F 29.9 in Calm   1 mph 44% 0 in 454 W/m2
14:46 76.5 °F 52.9 °F 29.9 in Calm   4 mph 44% 0 in 499 W/m2
14:51 76.6 °F 52.5 °F 29.9 in South 2 mph 6 mph 43% 0 in 571 W/m2
14:56 76.8 °F 52.7 °F 29.9 in NNE 2 mph 2 mph 43% 0 in 643 W/m2
15:01 77 °F 52.2 °F 29.9 in WSW 2 mph 4 mph 42% 0 in 629 W/m2
15:06 77.5 °F 52.7 °F 29.9 in NNW 0.9 mph 4 mph 42% 0 in 650 W/m2
15:11 78.3 °F 53.2 °F 29.9 in SSW 2 mph 2 mph 42% 0 in 643 W/m2
15:16 78.6 °F 52.3 °F 29.9 in NW 2.9 mph 3 mph 40% 0 in 608 W/m2
15:21 79.2 °F 52.2 °F 29.9 in NNW 2.9 mph 5 mph 39% 0 in 443 W/m2
15:26 79 °F 52 °F 29.9 in East 2 mph 4 mph 39% 0 in 390 W/m2
15:31 79 °F 52.5 °F 29.9 in East 2 mph 7 mph 40% 0 in 436 W/m2
15:36 79 °F 52 °F 29.9 in East 2 mph 2 mph 39% 0 in 301 W/m2
15:41 79 °F 52 °F 29.9 in ESE 0.9 mph 7 mph 39% 0 in 338 W/m2
15:46 78.8 °F 52.5 °F 29.9 in SE 2.9 mph 3 mph 40% 0 in 432 W/m2
15:51 78.6 °F 51.6 °F 29.9 in Calm   4 mph 39% 0 in 406 W/m2
15:56 78.6 °F 51.6 °F 29.9 in ESE 0.9 mph 1 mph 39% 0 in 336 W/m2
16:01 78.6 °F 51.6 °F 29.9 in Calm   2 mph 39% 0 in 285 W/m2
16:06 78.6 °F 50.9 °F 29.9 in ENE 0.9 mph 4 mph 38% 0 in 269 W/m2
16:11 78.4 °F 51.4 °F 29.9 in NE 0.9 mph 4 mph 39% 0 in 267 W/m2
16:16 78.3 °F 50.5 °F 29.9 in SSW 0.9 mph 2 mph 38% 0 in 288 W/m2
16:21 78.1 °F 51.1 °F 29.9 in Calm   2 mph 39% 0 in 281 W/m2
16:26 78.3 °F 51.3 °F 29.9 in ENE 0.9 mph 3 mph 39% 0 in 294 W/m2
16:31 78.6 °F 50.9 °F 29.9 in Calm   3 mph 38% 0 in 468 W/m2
16:36 79.2 °F 50.7 °F 29.9 in NNE 0.9 mph 2 mph 37% 0 in 536 W/m2
16:41 79.7 °F 50.4 °F 29.9 in ENE 2.9 mph 4 mph 36% 0 in 578 W/m2
16:46 80.2 °F 50.2 °F 29.9 in NW 0.9 mph 7 mph 35% 0 in 587 W/m2
16:51 80.1 °F 50.7 °F 29.9 in ENE 2 mph 6 mph 36% 0 in 573 W/m2
16:56 80.4 °F 51.1 °F 29.9 in NW 0.9 mph 3 mph 36% 0 in 438 W/m2
17:01 80.4 °F 51.1 °F 29.9 in NNW 0.9 mph 6 mph 36% 0 in 267 W/m2
17:06 80.2 °F 49.3 °F 29.9 in ENE 2.9 mph 4 mph 34% 0 in 339 W/m2
17:11 80.1 °F 50 °F 29.9 in ENE 4 mph 8 mph 35% 0 in 381 W/m2
17:16 79.9 °F 49.8 °F 29.9 in Calm   3 mph 35% 0 in 325 W/m2
17:21 80.1 °F 45 °F 29.9 in WNW 2.9 mph 5 mph 29% 0 in 406 W/m2
17:26 80.4 °F 44.2 °F 29.9 in NNW 2 mph 4 mph 28% 0 in 306 W/m2
17:31 80.4 °F 45.3 °F 29.9 in WNW 2.9 mph 5 mph 29% 0 in 374 W/m2
17:36 80.8 °F 44.6 °F 29.9 in WNW 0.9 mph 3 mph 28% 0 in 299 W/m2
17:41 80.8 °F 45.5 °F 29.9 in SE 2.9 mph 4 mph 29% 0 in 229 W/m2
17:46 80.2 °F 45.1 °F 29.9 in NNW 0.9 mph 3 mph 29% 0 in 162 W/m2
17:51 79.9 °F 44.8 °F 29.9 in ESE 0.9 mph 4 mph 29% 0 in 169 W/m2
17:56 79.7 °F 45.5 °F 29.9 in NE 2.9 mph 4 mph 30% 0 in 155 W/m2
18:01 79.3 °F 44.2 °F 29.9 in SE 2 mph 2 mph 29% 0 in 120 W/m2
18:06 79.2 °F 44.2 °F 29.9 in ENE 2.9 mph 4 mph 29% 0 in 179 W/m2
18:11 78.8 °F 43 °F 29.9 in ENE 4 mph 4 mph 28% 0 in 158 W/m2
18:16 78.6 °F 42.8 °F 29.9 in Calm   1 mph 28% 0 in 135 W/m2
18:21 78.4 °F 43.5 °F 29.9 in Calm   1 mph 29% 0 in 151 W/m2
18:26 78.3 °F 43.3 °F 29.9 in East 0.9 mph 2 mph 29% 0 in 149 W/m2
18:31 77.9 °F 43.2 °F 29.9 in East 4 mph 4 mph 29% 0 in 134 W/m2
18:36 77.7 °F 43.9 °F 29.9 in SE 0.9 mph 2 mph 30% 0 in 142 W/m2
18:41 77.4 °F 44.4 °F 29.9 in SE 0.9 mph 2 mph 31% 0 in 62 W/m2
18:46 76.6 °F 43.7 °F 29.9 in Calm   2 mph 31% 0 in 42 W/m2
18:51 76.3 °F 44.2 °F 29.9 in ENE 0.9 mph 2 mph 32% 0 in 39 W/m2
18:56 75.6 °F 45.1 °F 29.9 in East 0.9 mph 2 mph 34% 0 in 33 W/m2
19:01 74.8 °F 45.3 °F 29.9 in SSE 2 mph 2 mph 35% 0 in 32 W/m2
19:06 74.3 °F 45 °F 29.9 in East 0.9 mph 2 mph 35% 0 in 28 W/m2
19:11 73.8 °F 45.9 °F 29.9 in Calm   2 mph 37% 0 in 25 W/m2
19:16 73.2 °F 46 °F 29.9 in Calm   1 mph 38% 0 in 21 W/m2
19:21 72.7 °F 46.2 °F 29.9 in Calm   1 mph 39% 0 in 19 W/m2
19:26 72 °F 46.4 °F 29.9 in Calm   2 mph 40% 0 in 14 W/m2
19:31 71.2 °F 45.7 °F 29.9 in East 0.9 mph 2 mph 40% 0 in 11 W/m2
19:36 70.3 °F 46.2 °F 29.9 in Calm   1 mph 42% 0 in 7 W/m2
19:41 69.8 °F 45.7 °F 29.9 in East 0.9 mph 1 mph 42% 0 in 0 W/m2
19:46 69.3 °F 45.9 °F 29.9 in SE 2 mph 2 mph 43% 0 in 0 W/m2
19:51 68.7 °F 45.9 °F 29.9 in SE 0.9 mph 2 mph 44% 0 in 0 W/m2
19:56 68.2 °F 46 °F 29.9 in SE 0.9 mph 2 mph 45% 0 in 0 W/m2
20:01 67.6 °F 45.5 °F 29.9 in SE 0.9 mph 2 mph 45% 0 in 0 W/m2
20:06 67.1 °F 45.7 °F 29.9 in SE 0.9 mph 2 mph 46% 0 in 0 W/m2
20:11 66.7 °F 45.3 °F 29.9 in Calm     46% 0 in 0 W/m2
20:16 66.4 °F 45.5 °F 29.9 in SE 2 mph 2 mph 47% 0 in 0 W/m2
20:21 65.8 °F 45.7 °F 29.9 in SE 0.9 mph 2 mph 48% 0 in 0 W/m2
20:26 65.5 °F 45.3 °F 29.9 in SE 0.9 mph 2 mph 48% 0 in 0 W/m2
20:31 65.1 °F 45 °F 29.9 in Calm     48% 0 in 0 W/m2
20:36 64.9 °F 44.8 °F 29.9 in SE 0.9 mph 2 mph 48% 0 in 0 W/m2
20:41 64.8 °F 45.1 °F 29.9 in SSE 2 mph 2 mph 49% 0 in 0 W/m2
20:46 64.6 °F 44.4 °F 29.9 in SSE 2 mph 2 mph 48% 0 in 0 W/m2
20:51 64.6 °F 45 °F 29.9 in Calm   1 mph 49% 0 in 0 W/m2
20:56 64.8 °F 44.6 °F 29.9 in Calm   2 mph 48% 0 in 0 W/m2
21:01 64.8 °F 44.6 °F 29.9 in Calm     48% 0 in 0 W/m2
21:06 64.6 °F 45 °F 29.9 in SSE 0.9 mph 2 mph 49% 0 in 0 W/m2
21:11 64.2 °F 44.6 °F 29.9 in Calm   1 mph 49% 0 in 0 W/m2
21:16 64 °F 44.4 °F 29.9 in South 0.9 mph 3 mph 49% 0 in 0 W/m2
21:21 64 °F 44.4 °F 29.9 in Calm   1 mph 49% 0 in 0 W/m2
21:26 63.9 °F 44.2 °F 30 in Calm   3 mph 49% 0 in 0 W/m2
21:31 63.9 °F 44.2 °F 30 in South 0.9 mph 1 mph 49% 0 in 0 W/m2
21:36 63.9 °F 44.8 °F 30 in Calm   1 mph 50% 0 in 0 W/m2
21:41 63.9 °F 45.3 °F 30 in Calm   2 mph 51% 0 in 0 W/m2
21:46 63.7 °F 44.8 °F 30 in Calm   2 mph 50% 0 in 0 W/m2
21:51 63.7 °F 45.1 °F 30 in South 0.9 mph 2 mph 51% 0 in 0 W/m2
21:57 63.9 °F 45.3 °F 30 in South 0.9 mph 1 mph 51% 0 in 0 W/m2
22:02 63.7 °F 45.1 °F 30 in Calm   3 mph 51% 0 in 0 W/m2
22:07 63.9 °F 45.3 °F 30 in South 0.9 mph 1 mph 51% 0 in 0 W/m2
22:12 63.9 °F 45.3 °F 30 in Calm   3 mph 51% 0 in 0 W/m2
22:17 63.9 °F 45.9 °F 30 in South 0.9 mph 1 mph 52% 0 in 0 W/m2
22:22 63.5 °F 45.5 °F 30 in Calm   2 mph 52% 0 in 0 W/m2
22:27 63.1 °F 45.7 °F 30 in South 2 mph 2 mph 53% 0 in 0 W/m2
22:32 63 °F 46 °F 30 in Calm   1 mph 54% 0 in 0 W/m2
22:37 62.6 °F 45.7 °F 30 in South 0.9 mph 2 mph 54% 0 in 0 W/m2
22:42 62.2 °F 45.9 °F 30 in Calm   2 mph 55% 0 in 0 W/m2
22:47 62.1 °F 45.7 °F 30 in Calm   2 mph 55% 0 in 0 W/m2
22:52 61.5 °F 45.7 °F 30 in South 0.9 mph 1 mph 56% 0 in 0 W/m2
22:57 61.3 °F 45.5 °F 30 in Calm   2 mph 56% 0 in 0 W/m2
23:02 61 °F 45.7 °F 30 in South 0.9 mph 1 mph 57% 0 in 0 W/m2
23:07 60.6 °F 45.7 °F 30 in South 0.9 mph 2 mph 58% 0 in 0 W/m2
23:12 60.4 °F 45.7 °F 30 in Calm   2 mph 58% 0 in 0 W/m2
23:17 60.3 °F 45.5 °F 30 in Calm   2 mph 58% 0 in 0 W/m2
23:22 60.1 °F 45.7 °F 30 in South 0.9 mph 2 mph 59% 0 in 0 W/m2
23:27 59.9 °F 45.5 °F 30 in South 0.9 mph 2 mph 59% 0 in 0 W/m2
23:32 59.7 °F 45.3 °F 30 in Calm   1 mph 59% 0 in 0 W/m2
23:37 59.5 °F 45.1 °F 30 in Calm   2 mph 59% 0 in 0 W/m2
23:42 59.5 °F 45.7 °F 30 in Calm     60% 0 in 0 W/m2
23:47 59.4 °F 45.5 °F 30 in Calm   1 mph 60% 0 in 0 W/m2
23:52 59.2 °F 45.7 °F 30 in Calm   1 mph 61% 0 in 0 W/m2
23:57 58.8 °F 45.3 °F 30 in Calm     61% 0 in 0 W/m2
Juneau County Weather
Compliments of Weather Underground - 4 mb